GW4746 Weather Reports


Display with metric or nautical units.
time (UTC)temp
F
wind
direction
speed
MPH
gust
MPH
rain 1hr
in
rain 24hr
in
rain mn
in
humidity
%
barometer
mb
20260510033014 79 207 2.0 7.0 0.00 0.00 0.00 50 1009.1
20260510031522 80 210 2.0 5.0 0.00 0.00 0.00 47 1009.1
20260510030030 80 195 2.0 5.0 0.00 0.00 0.00 45 1009.0
20260510024510 81 165 0.0 3.0 0.00 0.00 0.00 43 1009.0
20260510023012 82 169 1.0 2.0 0.00 0.00 0.00 41 1008.9
20260510021520 82 161 0.0 2.0 0.00 0.00 0.00 39 1008.8
20260510020028 84 153 1.0 4.0 0.00 0.00 0.00 37 1008.6
20260510014526 84 190 0.0 3.0 0.00 0.00 0.00 36 1008.3
20260510013026 85 161 1.0 4.0 0.00 0.00 0.00 34 1008.2
20260510011533 87 184 1.0 4.0 0.00 0.00 0.00 32 1007.9
20260510010022 88 156 1.0 5.0 0.00 0.00 0.00 30 1008.1
20260510004523 89 202 2.0 4.0 0.00 0.00 0.00 29 1008.2
20260510003027 90 177 2.0 5.0 0.00 0.00 0.00 28 1008.2
20260510001528 92 171 1.0 4.0 0.00 0.00 0.00 28 1008.2
20260510000052 92 155 1.0 5.0 0.00 0.00 0.00 26 1008.2
20260509234529 93 177 1.0 5.0 0.00 0.00 0.00 27 1008.2
20260509233028 94 212 2.0 4.0 0.00 0.00 0.00 26 1008.1
20260509231524 94 162 2.0 4.0 0.00 0.00 0.00 26 1008.3
20260509230026 96 183 1.0 3.0 0.00 0.00 0.00 24 1008.5
20260509224528 95 170 2.0 4.0 0.00 0.00 0.00 24 1008.4
20260509223028 95 75 2.0 5.0 0.00 0.00 0.00 27 1008.5
20260509221523 95 131 2.0 4.0 0.00 0.00 0.00 29 1008.6
20260509220012 95 285 1.0 7.0 0.00 0.00 0.00 25 1008.6
20260509214520 95 177 1.0 6.0 0.00 0.00 0.00 28 1008.7
20260509213021 95 236 2.0 4.0 0.00 0.00 0.00 28 1008.8
20260509211504 94 159 1.0 4.0 0.00 0.00 0.00 30 1009.1
20260509210008 94 133 1.0 5.0 0.00 0.00 0.00 28 1009.2
20260509204509 94 165 2.0 5.0 0.00 0.00 0.00 28 1009.5
20260509203029 94 216 1.0 5.0 0.00 0.00 0.00 32 1009.7
20260509201530 94 164 1.0 9.0 0.00 0.00 0.00 32 1009.9
20260509200024 93 201 1.0 5.0 0.00 0.00 0.00 34 1009.9
20260509194509 93 38 1.0 6.0 0.00 0.00 0.00 32 1010.2
20260509193028 93 208 1.0 6.0 0.00 0.00 0.00 33 1010.4
20260509191524 94 223 2.0 4.0 0.00 0.00 0.00 33 1010.6
20260509190022 92 220 2.0 6.0 0.00 0.00 0.00 35 1010.7
20260509184538 93 143 2.0 4.0 0.00 0.00 0.00 36 1010.8
20260509183011 92 79 2.0 8.0 0.00 0.00 0.00 37 1011.0
20260509181511 92 231 1.0 3.0 0.00 0.00 0.00 38 1011.2
20260509180016 91 336 1.0 6.0 0.00 0.00 0.00 37 1011.3
20260509174521 90 173 2.0 7.0 0.00 0.00 0.00 40 1011.7
20260509173022 90 147 1.0 6.0 0.00 0.00 0.00 42 1011.9
20260509171510 89 134 1.0 5.0 0.00 0.00 0.00 43 1012.1
20260509170015 89 252 0.0 4.0 0.00 0.00 0.00 45 1012.2
20260509164519 88 187 1.0 4.0 0.00 0.00 0.00 46 1012.3
20260509163025 87 233 1.0 5.0 0.00 0.00 0.00 47 1012.3
20260509161526 86 233 1.0 3.0 0.00 0.00 0.00 49 1012.4
20260509160012 85 124 1.0 2.0 0.00 0.00 0.00 52 1012.4
20260509154517 83 124 1.0 4.0 0.00 0.00 0.00 56 1012.3
20260509153030 81 293 1.0 3.0 0.00 0.00 0.00 59 1012.5
20260509151522 80 289 1.0 3.0 0.00 0.00 0.00 60 1012.6
20260509150031 80 235 1.0 3.0 0.00 0.00 0.00 63 1012.6
20260509144532 78 256 1.0 3.0 0.00 0.00 0.00 66 1012.7
20260509143020 76 232 1.0 4.0 0.00 0.00 0.00 69 1012.7
20260509141529 75 240 1.0 2.0 0.00 0.00 0.00 73 1012.7
20260509140024 73 246 1.0 3.0 0.00 0.00 0.00 77 1012.8
20260509134544 71 217 1.0 3.0 0.00 0.00 0.00 81 1012.8
20260509133026 68 255 0.0 1.0 0.00 0.00 0.00 85 1012.8
20260509131516 66 259 0.0 0.0 0.00 0.00 0.00 89 1012.7
20260509130004 65 248 0.0 0.0 0.00 0.00 0.00 89 1012.7
20260509124507 65 250 0.0 2.0 0.00 0.00 0.00 88 1012.4
20260509123009 64 259 0.0 3.0 0.00 0.00 0.00 89 1012.4
20260509121527 64 260 0.0 1.0 0.00 0.00 0.00 88 1012.1
20260509120020 64 163 0.0 2.0 0.00 0.00 0.00 88 1012.1
20260509114515 63 184 0.0 2.0 0.00 0.00 0.00 87 1011.8
20260509113012 63 238 0.0 0.0 0.00 0.00 0.00 86 1011.7
20260509111512 64 234 0.0 0.0 0.00 0.00 0.00 85 1011.6
20260509110014 64 201 0.0 3.0 0.00 0.00 0.00 85 1011.4
20260509104535 65 205 1.0 2.0 0.00 0.00 0.00 83 1011.4
20260509103005 65 173 1.0 2.0 0.00 0.00 0.00 81 1011.6
20260509101509 65 150 0.0 0.0 0.00 0.00 0.00 79 1011.4
20260509100012 66 156 0.0 3.0 0.00 0.00 0.00 78 1011.4
20260509094527 66 153 0.0 2.0 0.00 0.00 0.00 77 1011.6
20260509093020 66 208 0.0 5.0 0.00 0.00 0.00 76 1011.7
20260509091506 67 58 0.0 6.0 0.00 0.00 0.00 75 1011.8
20260509090010 67 150 0.0 3.0 0.00 0.00 0.00 75 1011.7
20260509084512 67 147 0.0 4.0 0.00 0.00 0.00 75 1011.9
20260509083018 67 136 1.0 7.0 0.00 0.00 0.00 76 1012.0
20260509081527 67 125 3.0 10.0 0.00 0.00 0.00 77 1012.2
20260509080007 68 205 1.0 7.0 0.00 0.00 0.00 78 1012.5
20260509074509 68 87 4.0 8.0 0.00 0.00 0.00 79 1012.4
20260509073016 69 98 4.0 12.0 0.00 0.00 0.00 83 1013.1
20260509071520 70 76 3.0 8.0 0.00 0.00 0.00 86 1013.1
20260509070024 70 93 3.0 7.0 0.00 0.00 0.00 86 1013.1
20260509064532 69 72 1.0 3.0 0.00 0.00 0.00 87 1013.0
20260509063019 69 125 0.0 1.0 0.00 0.00 0.00 87 1011.6
20260509061516 69 162 0.0 2.0 0.00 0.00 0.00 87 1011.6
20260509060022 69 142 0.0 2.0 0.00 0.00 0.00 86 1011.5
20260509054532 70 304 1.0 3.0 0.00 0.00 0.00 86 1012.0
20260509053028 70 316 4.0 8.0 0.00 0.00 0.00 85 1011.9
20260509051511 70 172 0.0 4.0 0.00 0.00 0.00 85 1010.5
20260509050020 71 162 2.0 6.0 0.00 0.00 0.00 84 1010.4
20260509044520 71 197 0.0 4.0 0.00 0.00 0.00 83 1010.7
20260509043030 71 232 0.0 2.0 0.00 0.00 0.00 82 1010.4
20260509041544 72 204 0.0 4.0 0.00 0.00 0.00 81 1010.4
20260509040004 72 185 0.0 2.0 0.00 0.00 0.00 80 1010.2
20260509034504 72 159 0.0 4.0 0.00 0.00 0.00 79 1009.9